Previsão horária em Abaeté

Hoje, 17 Abril, Sábado

Tempo Temperatura Precipitação Vento Pressão Humidade
00:00 +20°C° 0 mm 1 m/s 706 mmHg 68%
01:00 +19°C° 0 mm 1 m/s 706 mmHg 70%
02:00 +19°C° 0 mm 1 m/s 706 mmHg 72%
03:00 +18°C° 0 mm 1 m/s 706 mmHg 75%
04:00 +16°C° 0 mm 0 m/s 706 mmHg 77%
05:00 +16°C° 0 mm 0 m/s 706 mmHg 78%
06:00 +15°C° 0 mm 0 m/s 706 mmHg 80%
07:00 +19°C° 0 mm 1 m/s 707 mmHg 73%
08:00 +22°C° 0 mm 1 m/s 707 mmHg 65%
09:00 +24°C° 0 mm 1 m/s 708 mmHg 57%
10:00 +26°C° 0 mm 1 m/s 708 mmHg 52%
11:00 +28°C° 0 mm 1 m/s 708 mmHg 46%
12:00 +30°C° 0 mm 1 m/s 707 mmHg 40%
13:00 +30°C° 0 mm 1 m/s 707 mmHg 40%
14:00 +30°C° 0 mm 1 m/s 706 mmHg 39%
15:00 +30°C° 0 mm 1 m/s 705 mmHg 38%
16:00 +28°C° 0 mm 1 m/s 705 mmHg 43%
17:00 +27°C° 0 mm 1 m/s 705 mmHg 48%
18:00 +25°C° 0 mm 1 m/s 705 mmHg 53%
19:00 +24°C° 0.1 mm 1 m/s 705 mmHg 56%
20:00 +23°C° 0.1 mm 1 m/s 705 mmHg 60%
21:00 +22°C° 0.1 mm 1 m/s 705 mmHg 63%
22:00 +22°C° 0 mm 1 m/s 705 mmHg 66%
23:00 +21°C° 0 mm 1 m/s 705 mmHg 69%

Amanhã, 18 Abril, Domingo

Tempo Temperatura Precipitação Vento Pressão Humidade
00:00 +21°C° 0 mm 1 m/s 705 mmHg 72%
01:00 +20°C° 0 mm 1 m/s 705 mmHg 73%
02:00 +20°C° 0 mm 1 m/s 705 mmHg 73%
03:00 +20°C° 0 mm 1 m/s 705 mmHg 74%
04:00 +20°C° 0 mm 1 m/s 705 mmHg 76%
05:00 +19°C° 0 mm 1 m/s 705 mmHg 77%
06:00 +19°C° 0 mm 1 m/s 705 mmHg 79%
07:00 +21°C° 0 mm 1 m/s 706 mmHg 71%
08:00 +23°C° 0 mm 1 m/s 706 mmHg 63%
09:00 +25°C° 0 mm 1 m/s 707 mmHg 55%
10:00 +27°C° 0 mm 1 m/s 707 mmHg 50%
11:00 +29°C° 0 mm 1 m/s 706 mmHg 45%
12:00 +31°C° 0 mm 2 m/s 706 mmHg 40%
13:00 +31°C° 0 mm 1 m/s 706 mmHg 39%
14:00 +32°C° 0 mm 1 m/s 705 mmHg 38%
15:00 +32°C° 0 mm 1 m/s 704 mmHg 38%
16:00 +30°C° 0 mm 1 m/s 704 mmHg 44%
17:00 +28°C° 0 mm 2 m/s 704 mmHg 50%
18:00 +26°C° 0 mm 2 m/s 704 mmHg 56%
19:00 +25°C° 0.3 mm 2 m/s 704 mmHg 66%
20:00 +23°C° 0.3 mm 2 m/s 705 mmHg 76%
21:00 +21°C° 0.3 mm 2 m/s 705 mmHg 86%
22:00 +20°C° 0.7 mm 2 m/s 705 mmHg 88%
23:00 +21°C° 0.7 mm 1 m/s 705 mmHg 89%

Depois de amanhã, 19 Abril, Segunda-feira

Tempo Temperatura Precipitação Vento Pressão Humidade
00:00 +21°C° 0.7 mm 1 m/s 705 mmHg 90%
01:00 +21°C° 0.1 mm 1 m/s 705 mmHg 90%
02:00 +21°C° 0.1 mm 1 m/s 705 mmHg 90%
03:00 +21°C° 0.1 mm 1 m/s 704 mmHg 89%
04:00 +19°C° 0 mm 0 m/s 705 mmHg 90%
05:00 +19°C° 0 mm 0 m/s 705 mmHg 90%
06:00 +19°C° 0 mm 0 m/s 705 mmHg 91%
07:00 +19°C° 0 mm 0 m/s 706 mmHg 88%
08:00 +22°C° 0 mm 1 m/s 706 mmHg 86%
09:00 +23°C° 0 mm 1 m/s 707 mmHg 84%
10:00 +24°C° 0 mm 1 m/s 706 mmHg 75%
11:00 +26°C° 0 mm 1 m/s 706 mmHg 66%
12:00 +28°C° 0 mm 2 m/s 706 mmHg 57%
13:00 +29°C° 0.1 mm 2 m/s 706 mmHg 53%
14:00 +30°C° 0.1 mm 2 m/s 705 mmHg 49%
15:00 +31°C° 0.1 mm 2 m/s 704 mmHg 44%
16:00 +29°C° 0.1 mm 2 m/s 704 mmHg 52%
17:00 +27°C° 0.1 mm 2 m/s 704 mmHg 59%
18:00 +25°C° 0.1 mm 1 m/s 704 mmHg 66%
19:00 +24°C° 0.6 mm 1 m/s 704 mmHg 75%
20:00 +22°C° 0.6 mm 1 m/s 705 mmHg 84%
21:00 +21°C° 0.6 mm 1 m/s 705 mmHg 93%
22:00 +21°C° 0.1 mm 1 m/s 705 mmHg 93%
23:00 +20°C° 0.1 mm 1 m/s 705 mmHg 93%

20 Abril, Terça-feira

Tempo Temperatura Precipitação Vento Pressão Humidade
00:00 +20°C° 0.1 mm 1 m/s 705 mmHg 93%
01:00 +20°C° 0 mm 1 m/s 705 mmHg 93%
02:00 +20°C° 0 mm 1 m/s 705 mmHg 94%
03:00 +19°C° 0 mm 1 m/s 704 mmHg 94%
04:00 +19°C° 0 mm 1 m/s 704 mmHg 94%
05:00 +19°C° 0 mm 1 m/s 705 mmHg 93%
06:00 +18°C° 0 mm 1 m/s 705 mmHg 93%
07:00 +20°C° 0 mm 1 m/s 705 mmHg 87%
08:00 +21°C° 0 mm 1 m/s 706 mmHg 81%
09:00 +23°C° 0 mm 1 m/s 707 mmHg 75%
10:00 +25°C° 0 mm 1 m/s 706 mmHg 67%
11:00 +27°C° 0 mm 1 m/s 706 mmHg 60%
12:00 +29°C° 0 mm 1 m/s 706 mmHg 52%
13:00 +29°C° 0 mm 1 m/s 706 mmHg 50%
14:00 +29°C° 0 mm 1 m/s 705 mmHg 48%
15:00 +29°C° 0 mm 1 m/s 704 mmHg 46%
16:00 +28°C° 0 mm 1 m/s 704 mmHg 51%
17:00 +26°C° 0 mm 1 m/s 704 mmHg 56%
18:00 +25°C° 0 mm 1 m/s 704 mmHg 61%
19:00 +24°C° 0 mm 1 m/s 704 mmHg 63%
20:00 +22°C° 0 mm 0 m/s 705 mmHg 64%
21:00 +21°C° 0 mm 0 m/s 705 mmHg 65%
22:00 +21°C° 0 mm 0 m/s 705 mmHg 67%
23:00 +21°C° 0 mm 0 m/s 705 mmHg 68%

21 Abril, Quarta-feira

Tempo Temperatura Precipitação Vento Pressão Humidade
00:00 +20°C° 0 mm 0 m/s 705 mmHg 70%
01:00 +20°C° 0 mm 0 m/s 705 mmHg 71%
02:00 +22°C° 0 mm 1 m/s 705 mmHg 73%
03:00 +21°C° 0 mm 1 m/s 705 mmHg 74%
04:00 +21°C° 0.1 mm 1 m/s 705 mmHg 76%
05:00 +20°C° 0.1 mm 1 m/s 705 mmHg 78%
06:00 +20°C° 0.1 mm 1 m/s 705 mmHg 80%
07:00 +21°C° 0 mm 1 m/s 706 mmHg 73%
08:00 +23°C° 0 mm 1 m/s 706 mmHg 67%
09:00 +25°C° 0 mm 1 m/s 707 mmHg 60%
10:00 +27°C° 0 mm 1 m/s 707 mmHg 55%
11:00 +28°C° 0 mm 1 m/s 706 mmHg 50%
12:00 +30°C° 0 mm 1 m/s 706 mmHg 44%
13:00 +30°C° 0 mm 1 m/s 705 mmHg 44%
14:00 +30°C° 0 mm 1 m/s 705 mmHg 44%
15:00 +29°C° 0 mm 1 m/s 704 mmHg 44%
16:00 +28°C° 0 mm 1 m/s 704 mmHg 48%
17:00 +27°C° 0 mm 1 m/s 704 mmHg 53%
18:00 +25°C° 0 mm 1 m/s 704 mmHg 57%
19:00 +25°C° 0 mm 1 m/s 704 mmHg 59%
20:00 +24°C° 0 mm 1 m/s 705 mmHg 61%
21:00 +21°C° 0 mm 0 m/s 705 mmHg 62%
22:00 +21°C° 0 mm 0 m/s 705 mmHg 64%
23:00 +20°C° 0 mm 0 m/s 705 mmHg 67%

22 Abril, Quinta-feira

Tempo Temperatura Precipitação Vento Pressão Humidade
00:00 +20°C° 0 mm 0 m/s 705 mmHg 69%
01:00 +19°C° 0 mm 0 m/s 705 mmHg 71%
02:00 +19°C° 0 mm 0 m/s 705 mmHg 74%
03:00 +18°C° 0 mm 0 m/s 705 mmHg 76%
04:00 +18°C° 0 mm 0 m/s 705 mmHg 78%
05:00 +17°C° 0 mm 0 m/s 705 mmHg 79%
06:00 +17°C° 0 mm 0 m/s 705 mmHg 81%
07:00 +19°C° 0 mm 0 m/s 706 mmHg 74%
08:00 +21°C° 0 mm 0 m/s 707 mmHg 67%
09:00 +25°C° 0 mm 1 m/s 707 mmHg 60%
10:00 +27°C° 0 mm 1 m/s 707 mmHg 54%
11:00 +29°C° 0 mm 1 m/s 707 mmHg 48%
12:00 +31°C° 0 mm 1 m/s 707 mmHg 42%
13:00 +31°C° 0 mm 2 m/s 706 mmHg 37%
14:00 +32°C° 0 mm 2 m/s 705 mmHg 33%
15:00 +32°C° 0 mm 2 m/s 705 mmHg 28%
16:00 +30°C° 0 mm 2 m/s 704 mmHg 33%
17:00 +28°C° 0 mm 1 m/s 704 mmHg 38%
18:00 +26°C° 0 mm 1 m/s 704 mmHg 43%
19:00 +25°C° 0 mm 1 m/s 704 mmHg 47%
20:00 +24°C° 0 mm 1 m/s 705 mmHg 50%
21:00 +23°C° 0 mm 1 m/s 705 mmHg 53%
22:00 +22°C° 0 mm 1 m/s 705 mmHg 55%
23:00 +21°C° 0 mm 1 m/s 705 mmHg 58%
Mostrar mais